THORAD DELTA 1 DEB, 8181

Orbit data source: Space-Track

THORAD DELTA 1 DEB, 8181 is space debris in SSO originally from a launch on Fri, 15 Nov 1974 UTC launched from the Air Force Western Test Range (AFWTR). Debris objects in space refer to the collection of defunct objects orbiting the Earth. Examples of debris include non-operational satellites, rocket bodies, and fragments generated from explosions, collisions, or faulty payload assembly.

Loading next visibility...
Identifier
8181, 1974-089AX
Orbit
SSO
Country
Flag of USUS
Related business
Manufacturer
Unknown
Mission
Spacecraft
Bus & Motor
Unknown
Mass
Unknown
Launch date (UTC)
1974-11-15 (51 years ago)
Launch vehicle
Unknown
Launch site
Air Force Western Test Range (AFWTR)
Object type
Payload
Rocket body
Debris
Shape & HBR
Unknown shape, 0.3 m
Radar Cross Section
Small (<0.1 m²)

Expand to show TLE details & history
Last TLE update: 10 hours ago

TLE from 10 hours ago
0 THORAD DELTA 1 DEB
1 08181U 74089AX  25310.82169718  .00000100  00000-0  10571-2 0  9996
2 08181 101.6814  61.1420 0067113  61.7110  89.5288 12.40309657306803
Epoch: 2025-11-06T19:43Z
TLE epoch observation values (Epoch: 2025-11-06T19:43:14.636Z)
Latitude
27.40086°
Longitude
-94.82125°
Altitude
1,508.263 km
Speed
7.113 km/s
True Right ascension
16h 29m 03s
True Declination
27° 16' 26"
Sunlit
Object was in daylight at epoch
Visualization orbit readout
Latitude
Unknown
Longitude
Unknown
Altitude
Unknown
Speed
Unknown
Apparent Right ascension
Unknown
Apparent Declination
Unknown
Sunlit
N/A
Visualization observer readout
Local Sidereal Time
02:05:03
Azimuth
Unknown
Elevation
Unknown
Doppler factor
Unknown
Orbital elements
Apogee altitude
1,555.738 km
Perigee altitude
1,449.955 km
Semi-major axis
7,880.983 km
Eccentricity
0.00671
Inclination
101.6814°
RAAN
61.142°
Arg. of periapsis
61.711°
True anomaly
90.29786°
Mean anomaly
89.5288°
Eccentric anomaly
89.91333°
Mean motion
3.10222 °/min
Orbital period
116.05 mins
BSTAR
0.0010571
Loading maneuver chart data...
Computing Atmospheric mass density...

Documentation

Showing up to 5 results
|